Regional Weather Roundup
Issued by NWS

Home | Current Version | Previous Version | Text Only | Print | Product List | Glossary On
Versions: 1 2 3 4 5 6 7 8 9 10 11 12 13 14 15 16 17 18 19 20 21 22 23 24 25 26 27 28 29 30 31 32 33 34 35 36 37 38 39 40 41 42 43 44 45 46 47 48 49 50
000
ASUS43 KMPX 202201
RWRMN
WEATHER ROUNDUP FOR MINNESOTA
NATIONAL WEATHER SERVICE TWIN CITIES/CHANHASSEN MN
400 PM CST THU NOV 20 2014


NOTE: "FAIR" INDICATES FEW OR NO CLOUDS BELOW 12,000 FEET WITH NO
SIGNIFICANT WEATHER AND/OR OBSTRUCTIONS TO VISIBILITY. N/A MEANS
CURRENT SKY AND/OR WEATHER CONDITIONS ARE NOT AVAILABLE.

MNZ060>063-068>070-202300-
   Twin Cities Metro

CITY           SKY/WX    TMP DP  RH WIND       PRES   REMARKS
TWIN CITIES    CLEAR     16   1  51 NW14      30.17R WCI   2
ST PAUL        CLEAR     17   2  51 W14       30.19R WCI   3
CRYSTAL        CLEAR     17   2  51 W13       30.16R WCI   4
BLAINE         CLEAR     18   3  53 W14       30.15R WCI   4
LAKEVILLE      CLEAR     14   3  62 W13       30.16R WCI   0
EDEN PRAIRIE   CLEAR     16   4  59 W13       30.17R WCI   2
SOUTH ST PAUL  CLEAR     18   1  47 W12       30.17R WCI   6
LAKE ELMO      FAIR      18   1  49 NW13      30.16R WCI   4
$$
MNZ001>005-007-008-013>017-022>024-027-028-202300-
   Northwest Minnesota

CITY           SKY/WX    TMP DP  RH WIND       PRES   REMARKS
BEMIDJI        CLEAR      8  -2  61 W8        30.09R WCI  -4
HALLOCK        CLEAR     14   1  57 SE5       30.11S WCI   6
ROSEAU         CLEAR     12   1  62 W7        30.10R WCI   2
WARROAD        CLEAR     10   0  61 SW7       30.09R WCI   0
THIEF RVR FALL CLEAR     10   1  67 CALM      30.11F
CROOKSTON      CLEAR     12   3  67 SE7       30.14F WCI   2
FOSSTON        CLEAR      9  -2  61 S6        30.12S WCI  -1
DETROIT LAKES  CLEAR     14   5  67 CALM      30.13R
MOORHEAD       CLEAR     19   1  45 SW3       30.15F
PARK RAPIDS    CLEAR     12  -2  53 W12       30.10R WCI  -2
MAHNOMEN       FAIR       9   0  67 CALM      30.13R
$$
MNZ006-009>011-018-025>026-202300-
   North Central Minnesota

CITY           SKY/WX    TMP DP  RH WIND       PRES   REMARKS
BAUDETTE       CLEAR      9  -2  61 W6        30.07R WCI  -1
FLAG ISLAND    CLEAR     10   0  61 W5        30.07R WCI   2
INTL FALLS     PTCLDY     7  -3  64 W8        30.06R WCI  -6
WASKISH        CLEAR     10   1  67 SW8       30.09R WCI  -1
BIG FORK       CLEAR     10   0  61 W5        30.07R WCI   2
LONGVILLE      CLEAR     12  -2  52 NW5       30.10R WCI   4
GRAND RAPIDS   CLEAR     10  -2  56 NW10      30.06R WCI  -3
CRANE LAKE     PTCLDY     9   0  66 W6        30.07R WCI  -1
ORR            CLEAR     10  -2  56 W6        30.02R WCI   1
COOK           CLEAR      9   0  66 W9        30.04R WCI  -5
WALKER         FAIR      11  -3  53 W7        30.09R WCI   1
$$
MNZ012-019>021-037-202300-
   Northeast Minnesota

CITY           SKY/WX    TMP DP  RH WIND       PRES   REMARKS
DULUTH         PTCLDY    12  -2  53 W13       30.04R WCI  -3
ELY            CLEAR      9   0  66 W7        30.01R WCI  -3
HIBBING        CLEAR     12  -3  51 W7        30.05R WCI   1
EVELETH        CLEAR     12   1  62 W8        30.05R WCI   1
DULUTH HARBOR  FAIR      18   3  53 W16       30.11R WCI   3
TWO HARBORS    CLEAR     16   1  53 CALM      30.03R
SILVER BAY     CLEAR     12   0  57 W3        30.02R
GRAND MARAIS     N/A     10  -3  55 VRB5      30.04R WCI   2
$$
MNZ029>031-032-039>041-046>048-054>057-064-202300-
   West Central Minnesota

CITY           SKY/WX    TMP DP  RH WIND       PRES   REMARKS
FERGUS FALLS   CLEAR     16   3  57 W3        30.17S
WHEATON        CLEAR     16   5  62 W3        30.19R
MORRIS         CLEAR     14   7  73 W5        30.16R WCI   6
ALEXANDRIA     CLEAR     13   3  64 W8        30.13S WCI   2
ELBOW LAKE       N/A     12   6  76 W5        30.15S WCI   4
WADENA         CLEAR     12   0  57 NW10      30.11S WCI  -1
GLENWOOD       CLEAR     12   3  67 W6        30.15R WCI   3
APPLETON       CLEAR     16   7  67 W3        30.18S
BENSON         CLEAR     10   5  79 CALM      30.18R
ORTONVILLE     CLEAR     16   5  62 W3        30.17R
MADISON        CLEAR     18   9  68 CALM      30.18F
WILLMAR        FAIR      12   5  73 W6        30.18S WCI   3
$$
MNZ033>034-036-042>043-049>051-058-059-202300-
   Central Minnesota

CITY           SKY/WX    TMP DP  RH WIND       PRES   REMARKS
ST CLOUD       CLEAR     17   0  47 W13       30.15R WCI   4
SAUK CENTRE    FAIR      13   3  64 W7        30.15R WCI   3
PAYNESVILLE    CLEAR     10   1  67 SW9       30.16S WCI  -3
AITKIN         CLEAR     18  -2  41 CALM      30.08S
PINE RIVER     CLEAR     14   0  52 NW7       30.13R WCI   4
BRAINERD       CLEAR     14  -1  51 NW8       30.11R WCI   3
STAPLES        CLEAR     10   0  61 W7        30.12R WCI   0
LONG PRAIRIE   FAIR      14   1  57 W6        30.13R WCI   5
LITTLE FALLS   CLEAR     16   0  48 W10       30.14R WCI   3
LITCHFIELD     CLEAR     14   7  73 W7        30.17R WCI   4
BUFFALO        CLEAR     15   3  59 W7        30.18R WCI   5
MAPLE LAKE     CLEAR     16   5  63 W8        30.17S WCI   5
$$
MNZ037-044-045-052-053-202300-
   East Central Minnesota

CITY           SKY/WX    TMP DP  RH WIND       PRES   REMARKS
PRINCETON      CLEAR     16   1  53 W8        30.15R WCI   5
MORA             N/A    N/A N/A N/A MISG        N/A
CAMBRIDGE      CLEAR     16   1  53 W7        30.13R WCI   6
RUSH CITY      CLEAR     15   0  51 W7        30.14R WCI   6
MOOSE LAKE     CLEAR     14   0  52 CALM      30.08S
HINCKLEY       FAIR      18   1  49 W8        30.12R WCI   7
CLOQUET        CLEAR     12  -4  48 W8        30.06R WCI   1
MCGREGOR       CLEAR     14   1  57 NW6       30.10R WCI   5
$$
MNZ071>073-080-081-089-090-097-098-202300-
   Southwest Minnesota

CITY           SKY/WX    TMP DP  RH WIND       PRES   REMARKS
MONTEVIDEO     CLEAR     18   7  62 NW3       30.19S
GRANITE FALLS  CLEAR     14   7  76 SW3       30.20F
CANBY          CLEAR     18   8  65 CALM      30.18F
MARSHALL       CLEAR     18   7  62 CALM      30.18S
REDWOOD FALLS  CLEAR     16   7  67 W9        30.19R WCI   4
OLIVIA         CLEAR     16   9  73 NW6       30.18S WCI   7
PIPESTONE      CLEAR     18   9  68 NW6       30.14S WCI   9
WINDOM         CLEAR     18   9  68 NW7       30.17R WCI   8
WORTHINGTON    CLEAR     16   9  73 NW8       30.17R WCI   5
JACKSON        CLEAR     19   9  63 NW8       30.17R WCI   9
TRACY          CLEAR     19   9  66 CALM      30.18S
SLAYTON        CLEAR     16   8  70 CALM      30.16S
$$
MNZ065>067-074>077-082>085-091>093-202300-
   South Central Minnesota

CITY           SKY/WX    TMP DP  RH WIND       PRES   REMARKS
MANKATO        CLEAR     18   5  57 NW10      30.18R WCI   6
NEW ULM        CLEAR     18   9  68 W8        30.19R WCI   7
ST JAMES       CLEAR     19   9  63 NW9       30.20  WCI   9
FAIRMONT       CLEAR     19   7  58 NW12      30.18R WCI   7
GLENCOE        CLEAR     15   7  71 W7        30.17S WCI   5
FARIBAULT      CLEAR     18   3  53 W13       30.17R WCI   4
OWATONNA       CLEAR     16   3  57 NW10      30.16R WCI   3
WASECA         CLEAR     18   5  57 W9        30.19R WCI   6
ALBERT LEA     CLEAR     18   9  68 W6        30.16S WCI   9
$$
MNZ078>079-086>088-094>096-202300-
   Southeast Minnesota

CITY           SKY/WX    TMP DP  RH WIND       PRES   REMARKS
ROCHESTER      CLEAR     15   4  61 W17       30.14R WCI  -1
RED WING       CLEAR     19  -2  38 NW10      30.16R WCI   8
STANTON        CLEAR     17   4  57 W10       30.16R WCI   5
DODGE CENTER   PTCLDY    16   7  67 W12G17    30.14R WCI   3
WINONA         CLEAR     21   5  49 W12G17    30.17R WCI   9
AUSTIN         CLEAR     16   7  67 W8        30.15S WCI   5
PRESTON        CLEAR     15   5  66 W12       30.15R WCI   1
$$
ABBREVIATIONS USED IN REMARKS
   TC - TEMPERATURES IN CELSIUS
  WCI - WIND CHILL INDEX
   HX - HEAT INDEX
  VSB - VISIBILITY
$$



USA.gov is the U.S. government's official web portal to all federal, state and local government web resources and services.